Location: *
(13.0000°N, 151.6000°E)
Time: 04:05:27
(UTC+00:00)

ATLAS 5 CENTAUR R/B - Pass Details

Date: 01 April 2020
Orbit: 283 x 14313 km, 60.7° (Epoch: 24 May)

Event Time Altitude Azimuth Distance (km) Brightness Sun altitude
Rises 17:29:40 0° 208° (SSW) 11,838 8.2 -34.3°
Reaches altitude 10° 17:41:28 10° 210° (SSW) 8,313 7.4 -31.5°
Maximum altitude 18:00:37 67° 292° (WNW) 1,479 3.6 -27.0°
Drops below altitude 10° 18:05:20 10° 16° (NNE) 2,239 5.2 -25.9°
Sets 18:06:43 0° 19° (NNE) 2,818 5.9 -25.5°
